Weather History for Honolulu, HI

Change the Weather History Date:

Saturday, February 16, 2013

  Actual Average Record
Temperature  
Mean Temperature 76 °F 73 °F  
Max Temperature 80 °F 80 °F 86 °F (1978)
Min Temperature 71 °F 66 °F 60 °F (1959)
Degree Days  
Heating Degree Days 0 0  
Month to date heating degree days 0 0  
Since 1 July heating degree days 0 0  
Cooling Degree Days 11 8  
Month to date cooling degree days 158 128  
Year to date cooling degree days 377 382  
Growing Degree Days 26 (Base 50)    
Moisture  
Dew Point 59 °F    
Average Humidity 59    
Maximum Humidity 73    
Minimum Humidity 45    
Precipitation  
Precipitation T in 0.08 in 1.31 in (1962)
Month to date precipitation T 1.07  
Year to date precipitation 2.42 3.38  
Snow  
Snow 0.00 in - - ()
Month to date snowfall 0.0  
Since 1 July snowfall 0.0  
Snow Depth 0.00 in    
Sea Level Pressure  
Sea Level Pressure 30.10 in    
Wind  
Wind Speed 19 mph (ENE)    
Max Wind Speed 31 mph    
Max Gust Speed 39 mph    
Visibility 10 miles    
Events      
T = Trace of Precipitation, MM = Missing Value Source: NWS Daily Summary

Daily Weather History Graph

Daily Weather History Graph

Search for Another Location

Airport:

Trip Planner

Search our weather history database for the weather conditions in past years. The results will help you decide how hot, cold, wet, or windy it might be!

Date:

Astronomy

Feb. 16, 2013 Rise Set
Actual Time 7:01 AM HST 6:30 PM HST
Civil Twilight 6:38 AM HST 6:53 PM HST
Nautical Twilight 6:12 AM HST 7:19 PM HST
Astronomical Twilight 5:46 AM HST 7:45 PM HST
Moon 11:16 AM HST (2/16) No Moon Set
Length of Visible Light 12h 14m
Length of Day
11h 29m
Waxing Crescent, 41% of the Moon is Illuminated
Feb 16
Waxing Crescent
Feb 17
First Quarter
Feb 25
Full
Mar 4
Last Quarter
Mar 11
New

Hourly Weather History & Observations

Time (HST) Temp. Heat Index Dew Point Humidity Pressure Visibility Wind Dir Wind Speed Gust Speed Precip Events Conditions
12:53 AM 73.0 °F - 62.1 °F 68% 30.10 in 10.0 mi ENE 15.0 mph 20.7 mph 0.00 in   Scattered Clouds
1:53 AM 72.0 °F - 62.1 °F 71% 30.10 in 10.0 mi ENE 13.8 mph 25.3 mph 0.00 in   Mostly Cloudy
2:53 AM 72.0 °F - 62.1 °F 71% 30.09 in 10.0 mi ENE 16.1 mph - 0.00 in   Scattered Clouds
3:53 AM 72.0 °F - 62.1 °F 71% 30.08 in 10.0 mi ENE 16.1 mph 21.9 mph N/A   Partly Cloudy
4:53 AM 73.0 °F - 61.0 °F 66% 30.08 in 10.0 mi ENE 17.3 mph 24.2 mph N/A   Partly Cloudy
5:53 AM 72.0 °F - 61.0 °F 68% 30.09 in 10.0 mi ENE 15.0 mph 25.3 mph 0.00 in   Scattered Clouds
6:53 AM 72.0 °F - 61.0 °F 68% 30.11 in 10.0 mi ENE 15.0 mph 23.0 mph 0.00 in   Scattered Clouds
7:53 AM 72.0 °F - 60.1 °F 66% 30.12 in 10.0 mi ENE 15.0 mph - 0.00 in   Partly Cloudy
8:53 AM 73.9 °F - 57.9 °F 57% 30.14 in 10.0 mi NE 20.7 mph 28.8 mph 0.00 in   Mostly Cloudy
9:53 AM 75.0 °F - 57.9 °F 55% 30.14 in 10.0 mi NE 28.8 mph 38.0 mph N/A   Scattered Clouds
10:53 AM 78.1 °F - 57.0 °F 48% 30.13 in 10.0 mi NE 25.3 mph 35.7 mph N/A   Scattered Clouds
11:53 AM 79.0 °F - 57.0 °F 47% 30.11 in 10.0 mi ENE 18.4 mph 34.5 mph N/A   Scattered Clouds
12:53 PM 80.1 °F 80.4 °F 57.0 °F 45% 30.09 in 10.0 mi ENE 23.0 mph 35.7 mph N/A   Scattered Clouds
1:53 PM 79.0 °F - 57.9 °F 48% 30.07 in 10.0 mi ENE 20.7 mph 34.5 mph N/A   Scattered Clouds
2:53 PM 79.0 °F - 57.0 °F 47% 30.05 in 10.0 mi East 16.1 mph 28.8 mph N/A   Scattered Clouds
3:53 PM 79.0 °F - 57.0 °F 47% 30.06 in 10.0 mi NNE 20.7 mph 29.9 mph N/A   Scattered Clouds
4:53 PM 77.0 °F - 55.9 °F 48% 30.07 in 10.0 mi ENE 25.3 mph 38.0 mph N/A   Scattered Clouds
5:53 PM 75.0 °F - 57.0 °F 53% 30.09 in 10.0 mi NE 20.7 mph 31.1 mph N/A   Scattered Clouds
6:53 PM 73.0 °F - 57.0 °F 57% 30.10 in 10.0 mi ENE 20.7 mph - N/A   Scattered Clouds
7:53 PM 73.0 °F - 55.9 °F 55% 30.12 in 10.0 mi ENE 19.6 mph 27.6 mph N/A   Scattered Clouds
8:53 PM 73.0 °F - 55.9 °F 55% 30.13 in 10.0 mi ENE 21.9 mph 28.8 mph N/A   Partly Cloudy
9:53 PM 73.0 °F - 57.9 °F 59% 30.14 in 10.0 mi ENE 19.6 mph 26.5 mph N/A   Mostly Cloudy
10:53 PM 73.0 °F - 57.0 °F 57% 30.14 in 10.0 mi NE 17.3 mph 25.3 mph N/A   Mostly Cloudy
11:53 PM 72.0 °F - 57.9 °F 61% 30.14 in 10.0 mi NE 11.5 mph 21.9 mph N/A   Mostly Cloudy